Location: Be?i?
(36.9044°N, 30.1006°E)
Time: 13:11:55
(UTC+00:00)

MOS 1 Rocket - Pass Details

Date: 05 August 2024
Orbit: 612 x 819 km, 97.5° (Epoch: 08 September)

Event Time Altitude Azimuth Distance (km) Brightness Sun altitude
Exits shadow 18:39:18 33° 100° (E) 1,045 3.7 -17.7°
Maximum altitude 18:40:10 36° 73° (ENE) 973 3.8 -17.8°
Drops below altitude 10° 18:44:05 10° 6° (N) 1,978 6.1 -18.4°
Sets 18:46:23 0° 358° (N) 2,895 7.1 -18.8°
